TimeEDT,TemperatureF,Dew PointF,Humidity,Sea Level PressureIn,VisibilityMPH,Wind Direction,Wind SpeedMPH,Gust SpeedMPH,PrecipitationIn,Events,Conditions,WindDirDegrees,DateUTC
12:15 AM,57.9,54.7,89,30.15,10.0,Calm,Calm,-,N/A,,Overcast,0,2013-09-16 04:15:00
12:35 AM,56.8,54.5,92,30.16,10.0,Calm,Calm,-,N/A,,Mostly Cloudy,0,2013-09-16 04:35:00
12:54 AM,56.3,54.0,92,30.15,10.0,Calm,Calm,-,N/A,,Scattered Clouds,0,2013-09-16 04:54:00
1:15 AM,55.9,53.8,92,30.16,7.0,Calm,Calm,-,N/A,,Clear,0,2013-09-16 05:15:00
1:34 AM,55.9,53.8,92,30.16,10.0,Calm,Calm,-,N/A,,Clear,0,2013-09-16 05:34:00
1:54 AM,55.6,53.1,91,30.17,10.0,WNW,4.6,-,N/A,,Scattered Clouds,300,2013-09-16 05:54:00
2:15 AM,55.4,52.0,88,30.17,10.0,WNW,5.8,-,N/A,,Scattered Clouds,300,2013-09-16 06:15:00
2:35 AM,54.9,51.8,89,30.17,10.0,WNW,3.5,-,N/A,,Clear,290,2013-09-16 06:35:00
2:55 AM,54.5,51.6,90,30.17,10.0,NW,5.8,-,N/A,,Clear,310,2013-09-16 06:55:00
3:14 AM,54.5,51.8,91,30.17,10.0,WNW,5.8,-,N/A,,Clear,300,2013-09-16 07:14:00
3:35 AM,54.5,51.8,91,30.17,10.0,WNW,5.8,-,N/A,,Clear,300,2013-09-16 07:35:00
3:54 AM,54.5,52.0,91,30.17,10.0,NW,4.6,-,N/A,,Clear,310,2013-09-16 07:54:00
4:14 AM,54.9,52.3,91,30.18,10.0,NW,5.8,-,N/A,,Scattered Clouds,320,2013-09-16 08:14:00
4:35 AM,55.9,53.1,90,30.18,10.0,NW,6.9,-,N/A,,Mostly Cloudy,320,2013-09-16 08:35:00
4:54 AM,56.7,53.8,90,30.19,10.0,NNW,5.8,-,N/A,,Overcast,330,2013-09-16 08:54:00
5:15 AM,56.7,53.6,89,30.19,10.0,NW,3.5,-,N/A,,Mostly Cloudy,320,2013-09-16 09:15:00
5:35 AM,56.5,53.6,90,30.20,10.0,NNW,5.8,-,N/A,,Mostly Cloudy,340,2013-09-16 09:35:00
5:54 AM,56.3,53.1,89,30.20,10.0,Calm,Calm,-,N/A,,Mostly Cloudy,0,2013-09-16 09:54:00
6:15 AM,55.9,52.7,89,30.21,10.0,NNW,5.8,-,N/A,,Mostly Cloudy,340,2013-09-16 10:15:00
6:35 AM,56.3,52.3,87,30.22,10.0,North,8.1,-,N/A,,Mostly Cloudy,350,2013-09-16 10:35:00
6:54 AM,56.3,52.5,87,30.23,10.0,North,8.1,-,N/A,,Overcast,360,2013-09-16 10:54:00
7:15 AM,56.3,52.2,86,30.25,10.0,North,6.9,-,N/A,,Overcast,350,2013-09-16 11:15:00
7:35 AM,56.3,52.3,87,30.25,10.0,North,6.9,-,N/A,,Overcast,350,2013-09-16 11:35:00
7:54 AM,56.3,52.3,87,30.26,10.0,North,9.2,-,N/A,,Overcast,360,2013-09-16 11:54:00
8:15 AM,56.5,52.7,87,30.26,10.0,North,8.1,-,N/A,,Overcast,360,2013-09-16 12:15:00
8:34 AM,56.7,52.9,87,30.27,10.0,North,5.8,-,N/A,,Overcast,360,2013-09-16 12:34:00
8:54 AM,57.4,53.2,86,30.28,10.0,NNE,5.8,-,N/A,,Overcast,20,2013-09-16 12:54:00
9:15 AM,56.8,52.3,85,30.29,7.0,North,9.2,19.6,N/A,,Overcast,10,2013-09-16 13:15:00
9:34 AM,56.8,52.0,84,30.30,10.0,North,11.5,-,N/A,,Overcast,10,2013-09-16 13:34:00
9:55 AM,57.2,50.7,79,30.31,10.0,North,9.2,-,N/A,,Overcast,360,2013-09-16 13:55:00
10:15 AM,57.2,49.6,76,30.32,10.0,North,9.2,19.6,N/A,,Overcast,10,2013-09-16 14:15:00
10:34 AM,58.1,49.6,73,30.32,10.0,North,12.7,-,N/A,,Overcast,360,2013-09-16 14:34:00
10:55 AM,57.7,49.5,74,30.33,10.0,North,10.4,-,N/A,,Overcast,10,2013-09-16 14:55:00
11:14 AM,59.0,48.4,68,30.33,10.0,NE,12.7,18.4,N/A,,Overcast,50,2013-09-16 15:14:00
11:35 AM,59.5,48.2,66,30.34,10.0,NNE,10.4,-,N/A,,Overcast,20,2013-09-16 15:35:00
11:55 AM,59.4,47.5,65,30.34,10.0,North,10.4,-,N/A,,Overcast,360,2013-09-16 15:55:00
12:14 PM,59.5,47.3,64,30.34,10.0,North,10.4,-,N/A,,Overcast,350,2013-09-16 16:14:00
12:35 PM,59.9,46.9,62,30.35,10.0,North,9.2,-,N/A,,Overcast,360,2013-09-16 16:35:00
12:55 PM,60.3,46.0,59,30.35,10.0,North,9.2,-,N/A,,Overcast,350,2013-09-16 16:55:00
1:14 PM,62.4,45.5,54,30.35,10.0,North,10.4,-,N/A,,Mostly Cloudy,360,2013-09-16 17:14:00
1:35 PM,62.2,44.4,52,30.35,10.0,North,9.2,16.1,N/A,,Mostly Cloudy,360,2013-09-16 17:35:00
1:54 PM,62.4,43.9,51,30.36,10.0,North,12.7,19.6,N/A,,Mostly Cloudy,360,2013-09-16 17:54:00
2:15 PM,63.0,43.9,50,30.36,10.0,ENE,11.5,18.4,N/A,,Mostly Cloudy,60,2013-09-16 18:15:00
2:35 PM,63.0,43.7,49,30.35,10.0,NE,10.4,20.7,N/A,,Scattered Clouds,40,2013-09-16 18:35:00
2:54 PM,62.2,42.6,49,30.35,10.0,North,8.1,-,N/A,,Scattered Clouds,10,2013-09-16 18:54:00
3:15 PM,62.8,42.8,48,30.35,10.0,North,10.4,-,N/A,,Scattered Clouds,360,2013-09-16 19:15:00
3:35 PM,62.6,40.6,45,30.35,10.0,NE,11.5,-,N/A,,Scattered Clouds,40,2013-09-16 19:35:00
3:54 PM,62.2,40.6,45,30.35,10.0,North,8.1,16.1,N/A,,Scattered Clouds,350,2013-09-16 19:54:00
4:15 PM,63.1,40.5,43,30.35,10.0,NE,5.8,-,N/A,,Scattered Clouds,50,2013-09-16 20:15:00
4:35 PM,63.3,41.2,44,30.35,10.0,North,9.2,-,N/A,,Scattered Clouds,10,2013-09-16 20:35:00
4:54 PM,63.3,40.6,43,30.35,10.0,NNE,9.2,-,N/A,,Scattered Clouds,30,2013-09-16 20:54:00
5:15 PM,61.9,41.0,46,30.35,10.0,North,5.8,10.4,N/A,,Scattered Clouds,350,2013-09-16 21:15:00
5:35 PM,61.7,40.8,46,30.35,10.0,North,5.8,-,N/A,,Clear,360,2013-09-16 21:35:00
5:54 PM,62.8,40.5,44,30.35,10.0,North,5.8,-,N/A,,Clear,10,2013-09-16 21:54:00
6:15 PM,61.9,40.6,46,30.36,10.0,North,8.1,-,N/A,,Clear,10,2013-09-16 22:15:00
6:34 PM,61.7,41.4,47,30.36,10.0,NNE,8.1,-,N/A,,Scattered Clouds,30,2013-09-16 22:34:00
6:54 PM,60.8,40.5,47,30.36,10.0,NNE,8.1,-,N/A,,Scattered Clouds,20,2013-09-16 22:54:00
7:15 PM,59.0,40.5,50,30.36,10.0,NNE,11.5,16.1,N/A,,Clear,30,2013-09-16 23:15:00
7:34 PM,57.7,39.7,51,30.37,10.0,NE,9.2,-,N/A,,Clear,50,2013-09-16 23:34:00
7:55 PM,56.8,40.3,54,30.37,10.0,NE,8.1,-,N/A,,Clear,40,2013-09-16 23:55:00
8:15 PM,56.3,40.3,55,30.37,10.0,NE,6.9,-,N/A,,Clear,50,2013-09-17 00:15:00
8:34 PM,55.6,40.6,57,30.38,10.0,ENE,9.2,-,N/A,,Clear,60,2013-09-17 00:34:00
8:55 PM,54.5,40.3,59,30.39,10.0,NE,9.2,-,N/A,,Clear,50,2013-09-17 00:55:00
9:15 PM,53.8,40.3,60,30.40,10.0,NE,8.1,-,N/A,,Clear,40,2013-09-17 01:15:00
9:34 PM,53.1,39.9,61,30.40,10.0,NE,11.5,-,N/A,,Clear,40,2013-09-17 01:34:00
9:55 PM,51.8,40.5,65,30.41,10.0,NNE,3.5,-,N/A,,Clear,30,2013-09-17 01:55:00
10:14 PM,51.3,40.3,66,30.41,10.0,NNE,6.9,-,N/A,,Clear,30,2013-09-17 02:14:00
10:35 PM,50.7,40.1,67,30.41,10.0,NNE,5.8,-,N/A,,Clear,20,2013-09-17 02:35:00
10:55 PM,49.6,39.6,68,30.41,10.0,NNE,8.1,-,N/A,,Clear,20,2013-09-17 02:55:00
11:14 PM,49.3,39.9,70,30.41,10.0,NNE,3.5,-,N/A,,Clear,20,2013-09-17 03:14:00
11:35 PM,49.1,40.1,71,30.41,10.0,North,4.6,-,N/A,,Clear,10,2013-09-17 03:35:00
11:55 PM,48.4,40.3,74,30.41,10.0,North,3.5,-,N/A,,Clear,10,2013-09-17 03:55:00